SCP
0 0 0 0 0 0 0 0 0 0 0 0 0 0 0 1 1 1 1 1 1 1 1 1 1 1 0 0 0 0 0 0 0 0 0 0 0 0 0 0 0 0 0 0
0 0 0 0 0 0 0 0 0 0 0 0 0 0 0 1 1 1 1 1 1 1 1 1 1 1 0 0 0 0 0 0 0 0 0 0 0 0 0 0 0 0 0 0
0 0 0 0 0 0 0 0 0 0 0 0 0 0 0 1 1 1 1 2 2 1 1 1 1 0 0 0 0 0 0 0 0 0 0 0 0 0 0 0 0 0 0 0
0 0 0 0 0 0 0 0 0 0 0 0 0 0 0 0 0 1 1 1 1 1 1 1 1 0 0 0 0 0 0 0 0 0 0 0 0 0 0 0 0 0 0 0
0 0 0 0 0 0 0 0 0 0 0 0 0 0 0 0 0 0 1 1 1 1 1 1 1 0 0 0 0 0 0 0 0 0 0 0 0 0 0 0 0 0 0 0
0 0 0 0 0 0 0 0 0 0 0 0 0 0 0 0 0 0 0 1 1 1 1 1 1 1 0 0 0 0 0 0 0 0 0 0 0 0 0 0 0 0 0 0
0 0 0 0 0 0 0 0 0 0 0 0 0 0 0 0 0 0 0 1 1 1 1 1 1 1 0 0 0 0 0 0 0 0 0 0 0 0 0 0 0 0 0 0
0 0 0 0 0 0 0 0 0 0 0 0 0 0 0 0 0 0 1 1 1 1 1 1 1 0 0 0 0 0 0 0 0 0 0 0 0 0 0 0 1 0 0 0
0 0 0 0 0 0 0 0 0 0 0 0 0 0 0 0 0 1 1 1 1 1 1 1 0 0 0 0 0 0 0 0 0 0 0 0 0 0 0 0 0 0 0 0
0 0 0 0 0 0 0 0 0 0 0 0 0 0 0 0 0 1 1 1 1 1 1 1 1 0 0 0 0 0 0 0 0 0 0 0 0 0 0 0 0 0 0 0
0 0 0 0 0 0 0 0 0 0 0 0 0 0 0 0 0 1 1 1 1 1 1 1 1 0 0 0 0 0 0 0 0 0 0 0 0 0 0 0 0 0 0 0
0 0 0 0 0 0 0 0 0 0 0 0 0 0 0 0 0 0 0 0 0 0 0 0 0 0 0 0 0 0 0 0 0 0 0 0 0 0 0 0 0 0 0 0
0 0 0 0 0 0 0 0 0 0 0 0 0 0 0 0 0 0 0 0 0 0 0 0 0 0 0 0 0 0 0 0 0 0 0 0 0 0 0 0 0 0 0 0
0 0 0 0 0 0 0 0 0 0 0 0 0 0 0 1 1 1 0 0 0 0 0 0 0 0 0 0 0 0 0 0 0 0 0 0 0 0 0 0 0 0 0 0
0 0 0 0 0 0 0 0 0 0 0 0 0 0 0 0 1 1 0 0 0 0 0 0 0 0 0 0 0 0 0 0 0 0 0 0 0 0 0 0 0 0 0 0
0 0 0 0 0 0 0 0 0 0 0 0 0 0 0 0 0 0 0 0 0 0 0 0 0 0 0 0 0 0 0 0 0 0 0 0 0 0 0 0 0 0 0 0
0 0 0 0 0 0 0 0 0 0 0 0 0 0 0 0 0 0 0 0 0 0 0 0 0 0 0 0 0 0 0 0 0 0 0 0 0 0 0 0 0 0 0 0
0 0 0 0 0 0 0 0 0 0 0 0 0 0 0 0 0 0 0 0 0 0 0 0 0 0 0 0 0 0 0 0 0 0 0 0 0 0 0 0 0 0 0 0
0 0 0 0 0 0 0 0 0 0 0 0 0 0 0 0 0 0 0 0 0 0 0 0 0 0 0 0 0 0 0 0 0 0 0 0 0 0 0 0 0 0 0 0
0 0 0 0 0 0 0 0 0 0 0 0 0 0 0 0 0 0 0 0 0 0 0 0 0 0 0 0 0 0 0 0 0 0 0 0 0 0 0 0 0 0 0 0
0 0 0 0 0 0 0 0 0 0 0 0 0 0 0 0 0 0 0 0 0 0 0 0 0 0 0 0 0 0 0 0 0 0 0 0 0 0 0 0 0 0 0 0
0 0 0 0 0 0 0 0 0 0 0 0 0 0 0 0 0 0 0 0 0 0 0 0 0 0 0 0 0 0 0 0 0 0 0 0 0 0 0 0 0 0 0 0
0 0 0 0 0 0 0 0 0 0 0 0 0 0 0 0 0 0 0 0 0 0 0 0 0 0 0 0 0 0 0 0 0 0 0 0 0 0 0 0 0 0 0 0
0 0 0 0 0 0 0 0 0 0 0 0 0 0 0 0 0 0 0 0 0 0 0 0 0 0 0 0 0 0 0 0 0 0 0 0 0 0 0 0 0 0 0 0
0 0 0 0 0 0 0 0 0 0 0 0 0 0 0 0 0 0 0 0 0 0 0 0 0 0 0 0 0 0 0 0 0 0 0 0 0 0 0 0 0 0 0 0
0 0 0 0 0 0 0 0 0 0 0 0 0 0 0 0 0 0 0 0 0 0 0 0 0 0 0 0 0 0 0 0 0 0 0 0 0 0 0 0 0 0 0 1
0 0 0 0 0 0 0 0 0 0 0 0 0 0 0 0 0 0 0 0 0 0 0 0 0 0 0 0 0 0 0 0 0 0 0 0 0 0 0 0 0 0 0 1
Wind_Speed
8 8 8 9 10 11 11 10 7 5 5 5 5 7 9 11 12 13 13 12 12 11 10 10 10 9 10 9 8 8 7 5 5 5 4 4 4 3 3 3 3 3 4 5
8 8 9 9 10 12 13 11 10 9 8 4 3 6 8 10 12 13 13 13 13 12 12 12 11 10 10 10 8 8 7 6 5 5 5 5 5 3 3 3 3 4 4 5
7 7 7 8 10 12 11 11 9 9 7 3 5 6 9 10 11 12 12 12 12 12 12 12 12 11 11 11 9 9 8 7 6 5 6 5 5 4 3 3 3 3 3 4
6 7 8 5 5 6 6 6 6 6 5 3 3 4 5 7 9 10 11 12 12 11 11 11 11 10 10 11 10 9 8 8 7 6 6 5 5 5 4 3 3 3 3 3
5 6 7 4 3 4 4 4 5 5 4 3 3 4 4 6 8 9 10 10 11 11 11 11 12 12 12 11 10 9 9 9 8 8 7 6 5 5 4 4 4 3 3 3
6 5 5 1 4 4 1 2 1 2 2 2 4 3 3 4 6 7 7 8 9 10 11 11 11 11 12 12 11 10 9 9 8 8 8 7 6 5 4 4 3 3 3 2
7 7 4 2 3 2 1 1 2 2 2 2 2 2 3 4 5 5 5 7 8 10 10 9 10 11 11 10 10 9 9 8 8 7 7 7 5 4 4 4 3 3 3 2
7 7 2 3 2 2 3 4 3 3 3 2 2 3 4 5 5 5 5 6 7 8 8 8 10 10 10 9 9 9 9 8 8 7 6 6 6 4 4 4 4 3 3 3
2 1 3 3 4 4 4 5 5 5 4 3 2 2 2 4 5 5 6 6 5 7 8 8 8 9 9 8 9 10 9 8 7 7 6 6 6 5 4 4 4 3 3 3
1 2 3 3 3 3 3 4 5 5 4 3 2 1 2 4 4 4 5 6 6 7 7 7 7 7 7 9 10 11 10 8 7 7 6 6 5 5 4 4 4 4 3 3
2 1 1 2 2 3 3 4 4 4 4 3 3 1 2 3 4 4 4 5 6 6 7 7 7 7 7 9 10 10 9 8 7 6 6 6 5 3 4 4 5 4 3 3
1 1 1 2 4 4 4 3 3 3 2 2 2 1 1 3 3 4 5 5 5 6 6 7 7 7 7 9 10 10 8 7 6 5 5 5 5 4 3 4 6 7 5 4
2 4 4 4 5 4 4 4 4 3 2 1 1 0 1 3 3 4 4 5 6 6 6 7 7 7 7 8 8 8 8 7 6 6 6 6 5 5 4 2 3 4 6 6
3 3 2 3 3 4 4 4 3 3 2 2 1 1 1 2 3 3 4 5 5 5 6 6 7 7 7 8 8 7 7 7 7 5 5 5 5 5 5 5 4 3 5 8
3 3 3 3 3 3 3 3 3 2 3 3 2 2 1 1 2 2 2 3 4 5 5 6 6 6 6 8 8 7 6 5 5 5 5 5 4 4 4 5 5 4 3 5
1 2 2 1 2 2 3 2 2 3 3 3 2 2 1 1 1 2 3 3 4 5 5 5 5 5 6 7 7 5 5 7 7 5 4 4 4 4 4 4 4 4 5 5
1 1 1 1 1 2 2 2 2 2 2 2 2 1 1 1 2 2 2 3 3 3 3 4 4 5 6 6 6 4 4 6 8 5 4 5 4 5 4 4 4 4 4 6
2 1 1 2 2 2 2 2 2 2 2 2 2 1 0 1 2 2 2 2 3 3 2 3 3 4 5 5 5 4 4 4 5 5 4 4 4 4 4 4 5 5 4 5
2 3 2 2 2 3 2 2 2 2 2 1 1 1 0 0 1 1 2 2 3 3 2 2 3 4 4 5 4 3 4 4 4 4 4 5 5 4 4 4 4 5 4 4
2 2 2 2 2 2 2 2 2 1 1 1 1 1 1 1 1 1 2 1 1 2 2 2 2 3 3 4 4 3 3 4 4 3 4 4 4 4 4 4 4 4 4 4
1 1 2 2 2 2 2 2 2 1 1 1 1 1 1 1 1 1 2 2 1 2 2 2 2 2 2 2 3 2 3 3 3 3 3 3 4 4 4 4 4 4 4 3
1 1 1 1 1 2 2 1 1 1 2 2 1 1 1 1 2 2 2 1 2 3 2 1 1 2 2 1 1 2 2 2 3 3 3 3 3 3 3 3 3 3 3 3
1 1 1 1 1 1 1 1 1 1 1 1 1 1 1 1 1 1 1 1 2 3 2 1 1 1 1 1 1 2 2 2 2 2 2 3 3 3 3 3 3 3 2 3
2 1 1 1 1 1 0 1 1 1 2 1 1 1 1 1 1 1 2 3 3 2 1 1 1 0 1 1 1 1 2 2 2 2 2 2 2 2 2 2 2 3 3 3
2 2 2 2 1 1 1 2 2 2 2 1 2 2 2 1 1 1 2 2 2 2 1 1 1 1 1 1 1 1 1 1 1 1 1 1 2 2 2 2 2 2 3 3
1 1 1 2 2 2 1 1 1 1 1 1 1 1 1 1 1 1 1 1 1 1 1 0 1 1 1 1 1 1 1 1 1 2 2 2 2 2 2 2 3 3 2 3
1 1 1 2 2 2 2 2 1 1 1 1 1 1 1 1 1 1 1 1 0 0 1 1 1 1 1 1 2 2 2 1 1 2 2 2 2 2 2 2 2 2 2 2
Wind_Direction
238 235 227 222 223 217 226 241 258 271 256 219 180 168 166 164 163 164 167 167 166 167 167 165 165 167 161 155 153 155 156 157 157 148 138 121 113 110 99 95 90 66 64 66
262 240 234 231 224 227 231 238 246 254 263 222 187 171 169 170 168 170 171 172 171 172 171 171 168 169 158 155 155 154 157 159 152 146 134 131 132 129 107 89 80 76 76 73
278 258 237 245 230 224 226 230 237 246 255 209 192 182 176 173 174 176 175 174 173 176 177 175 174 173 164 159 158 161 162 157 151 149 142 146 141 127 121 112 97 89 88 91
269 268 254 250 211 200 217 234 237 249 263 240 199 167 164 166 173 179 177 174 175 175 175 173 172 169 161 157 162 165 165 158 155 151 146 144 140 143 148 139 129 124 120 122
258 257 268 253 193 185 206 238 237 236 239 217 180 155 170 180 181 181 178 176 175 176 174 173 172 169 163 162 167 170 167 160 158 156 154 155 159 163 162 153 150 152 150 151
270 271 267 331 102 104 206 254 273 237 212 172 152 170 175 165 165 167 165 166 169 170 170 171 169 165 166 168 171 173 164 159 157 158 160 163 166 165 152 145 150 147 149 162
256 266 271 69 103 148 228 40 36 55 58 108 140 129 117 120 134 147 151 157 160 164 167 166 162 162 168 170 173 164 149 148 151 156 159 159 158 151 146 146 152 162 163 168
229 241 242 97 130 63 35 23 37 55 58 67 81 77 103 121 131 140 142 150 155 158 157 155 157 162 171 173 159 143 140 144 149 153 160 155 145 149 150 150 161 178 177 181
227 133 97 82 71 56 24 15 29 38 40 39 63 67 104 134 140 145 149 154 155 151 150 153 158 165 172 161 144 141 143 148 152 152 150 147 153 161 161 162 171 186 187 191
249 120 108 89 71 60 41 18 17 23 32 29 32 56 123 138 142 149 156 155 152 149 155 161 164 165 160 145 143 146 153 157 159 161 158 158 162 169 172 176 183 190 190 192
237 240 110 98 77 47 38 29 19 15 19 19 14 31 115 137 143 149 148 145 151 162 165 166 161 161 155 149 149 153 158 163 167 164 162 165 164 170 176 182 181 181 188 180
237 325 351 71 68 43 28 18 15 9 8 13 12 3 103 129 137 147 150 152 159 164 167 169 166 167 161 155 156 160 165 169 168 165 164 165 162 167 164 170 173 172 165 164
12 21 43 50 50 36 25 12 5 357 354 354 20 11 112 123 134 147 158 166 170 172 174 172 166 166 161 160 162 168 170 169 166 168 169 171 170 171 176 192 195 198 194 188
37 36 57 44 32 27 18 7 358 349 358 19 39 48 80 109 134 154 169 173 169 167 170 169 166 167 164 161 165 171 169 169 166 168 170 176 178 179 178 178 190 217 219 209
19 15 30 36 27 21 10 0 356 1 19 26 37 50 73 106 142 157 158 152 151 158 165 164 165 169 163 163 168 174 170 167 168 168 170 173 176 181 185 188 187 187 181 199
353 20 20 20 1 353 356 359 360 6 15 21 26 24 38 71 116 130 132 139 153 167 170 167 168 166 160 160 165 172 174 173 168 167 172 177 181 188 194 194 194 192 192 189
248 244 279 306 325 339 349 354 348 353 3 9 6 11 45 83 103 115 130 143 154 155 153 157 161 160 163 165 167 170 170 174 177 180 184 185 186 194 196 195 198 202 204 192
352 8 348 323 316 324 329 338 348 353 1 359 1 6 162 170 164 156 148 143 138 136 150 159 159 159 163 162 166 170 174 179 184 189 187 189 192 194 195 199 204 208 209 202
27 25 12 4 357 352 346 347 349 344 353 13 3 335 273 189 162 154 146 149 146 150 148 131 156 155 149 153 159 166 176 182 187 190 189 194 201 203 202 205 208 210 206 200
32 26 17 2 357 351 343 337 341 359 23 36 44 35 34 41 103 127 130 130 125 128 124 128 151 143 143 153 166 176 182 187 191 195 196 198 202 208 210 213 214 215 213 207
17 4 356 346 347 342 337 342 355 24 41 41 44 37 35 41 62 94 112 112 87 78 95 128 128 113 116 134 174 189 191 195 196 200 204 208 211 213 216 219 221 219 215 211
332 330 329 330 339 336 345 359 4 32 59 56 40 39 44 48 54 60 56 73 80 83 81 91 95 93 83 113 189 207 210 211 206 205 208 213 217 220 222 223 222 221 217 212
337 324 313 306 307 323 351 5 13 44 79 80 71 71 62 41 72 98 70 45 73 80 65 71 82 100 117 206 224 229 229 230 227 223 219 217 218 219 224 228 225 222 222 218
348 340 336 333 329 335 23 31 37 58 74 67 60 55 71 71 54 52 61 61 61 70 45 64 66 259 242 245 242 236 239 240 238 236 236 231 228 229 230 229 228 226 228 229
357 360 9 10 2 18 42 46 52 61 69 69 63 50 49 64 75 67 70 63 53 48 44 45 10 306 259 259 260 262 264 257 259 265 261 260 255 249 245 242 236 233 229 229
354 4 20 19 15 14 11 28 41 41 51 64 60 52 55 64 64 59 81 89 70 17 347 301 275 271 286 302 316 313 304 302 299 288 282 277 271 267 258 253 252 242 235 231
359 9 37 34 19 15 17 20 20 9 6 19 26 33 32 29 25 13 12 40 58 7 339 329 325 322 325 323 317 310 307 306 302 295 294 294 293 287 281 272 262 253 243 238